[[{"header":{"parameterUnit":"m.s-1","parameterCategory":1,"la1":30.2991,"la2":30.254,"lo1":-89.0895,"lo2":-89.0444,"dy":0.0017,"dx":0.0017,"nx":28,"ny":28,"refTime":"2024-08-25T09:00:00:Z","depth":0,"parameterNumber":2,"parameterNumberName":"U-component_of_WINDS"},"data":[0,0,0,0,0,0,0,0,0,0,0,0,0,0,0,0,0,0,0,0,0,0,0,0,0,0,0,0,0,0,0,0,0,0,0,0,0,0,0,0,0,0,0,0,0,0,0,0,0,0,0,0,0,0,0,0,0,0,0.5175,0.5175,0,0.5185,0.5186,0.5186,0.5193,0.5193,0.5193,0.5193,0.5203,0.5203,0.5203,0,0,0,0,0,0,0,0,0,0,0,0,0,0.5161,0.5162,0.5175,0.5175,0.5176,0.5185,0.5186,0.5186,0.5193,0.5193,0.5193,0.5193,0.5203,0.5203,0.5203,0,0,0,0,0,0,0,0,0,0,0,0,0,0.5169,0.5162,0.5175,0.518,0.5181,0.5185,0.5186,0.5186,0.5193,0.5193,0.5193,0.5193,0.5203,0.5203,0.5203,0.5203,0,0,0.5204,0.5204,0,0,0,0,0,0,0,0,0.5169,0.517,0.518,0.518,0.5181,0.5188,0.5184,0.5192,0.5193,0.5188,0.5193,0.5193,0.5198,0.5199,0.52,0.5204,0.5204,0.5204,0.5205,0.5205,0.5205,0,0,0,0,0,0,0,0.5168,0.5169,0.5179,0.518,0.518,0.5182,0.5183,0.5186,0.5192,0.5189,0.5189,0.5191,0.5198,0.52,0.5201,0.5204,0.5204,0.5205,0.5205,0.5205,0.5208,0.5208,0,0,0,0,0,0,0.5167,0.5169,0.5179,0.518,0.5175,0.5182,0.5183,0.5186,0.5192,0.5194,0.519,0.5191,0.5199,0.52,0.5201,0.5201,0.5205,0.5205,0.5205,0.5208,0.5208,0.5208,0,0,0,0,0,0,0.5166,0.5168,0.5179,0.5174,0.5176,0.5182,0.5185,0.5186,0.5188,0.5194,0.5195,0.5191,0.52,0.5201,0.5203,0.5201,0.5205,0.5205,0.5208,0.5208,0.5208,0.5201,0,0,0,0,0,0,0.5166,0.5168,0.5168,0.5174,0.5176,0.518,0.5185,0.5186,0.5188,0.5189,0.5195,0.5196,0.52,0.5202,0.5203,0.5202,0.5206,0.5208,0.5208,0.5208,0.5201,0.5201,0.52,0,0,0,0,0,0.5166,0.5165,0.5168,0.5169,0.5177,0.518,0.5181,0.5186,0.5188,0.5188,0.5192,0.5195,0.5201,0.5202,0.5203,0.5202,0.5208,0.5208,0.5208,0.5202,0.5201,0.52,0,0,0,0,0,0,0.5159,0.5166,0.5169,0.5171,0.5175,0.5182,0.5182,0.5185,0.5188,0.5189,0.5194,0.5196,0.5197,0.52,0.5201,0.5202,0.5205,0.5205,0.52,0.52,0.5199,0.5198,0.5206,0,0,0,0,0,0.5157,0.516,0.5167,0.5168,0.517,0.5175,0.5177,0.5181,0.5185,0.5186,0.519,0.5194,0.5197,0.5198,0.5201,0.5202,0.5203,0.5202,0.5201,0.52,0.52,0.52,0.52,0.5207,0.5207,0.5207,0,0,0.5155,0.5159,0.5161,0.5167,0.517,0.5172,0.5177,0.5179,0.5181,0.5187,0.5189,0.5192,0.5196,0.5198,0.5198,0.52,0.5199,0.52,0.52,0.52,0.52,0.5199,0.5199,0.5207,0.5207,0.5207,0,0,0.5151,0.5155,0.5156,0.5159,0.5165,0.5168,0.5169,0.5175,0.5177,0.5179,0.5184,0.5185,0.519,0.5193,0.5195,0.5192,0.5195,0.5193,0.5189,0.5189,0.5189,0.5188,0.5187,0.5186,0.5193,0.5193,0.5192,0,0.5147,0.5151,0.5156,0.5158,0.5161,0.5166,0.5167,0.517,0.5176,0.5177,0.5179,0.5184,0.5188,0.519,0.5189,0.5191,0.5191,0.5192,0.5188,0.5188,0.5188,0.5186,0.5186,0.5192,0.5192,0.5192,0.5192,0,0.5146,0.5148,0.5149,0.5154,0.5156,0.5158,0.5163,0.5165,0.5168,0.5171,0.5173,0.5177,0.5181,0.5182,0.5185,0.5184,0.5185,0.5187,0.519,0.5187,0.5185,0.5185,0.5192,0.5192,0.5192,0.5192,0,0,0.5138,0.5146,0.5146,0.5148,0.5154,0.5156,0.5158,0.5161,0.5163,0.5166,0.5167,0.5171,0.5173,0.5176,0.5179,0.5179,0.5176,0.5182,0.5182,0.518,0.5175,0.5172,0.5172,0.5178,0.5178,0.5178,0.5174,0,0.5135,0.5138,0.5143,0.5145,0.5147,0.5152,0.5153,0.5157,0.516,0.5162,0.5165,0.5168,0.5171,0.5172,0.5173,0.5176,0.5175,0.5177,0.5179,0.5179,0.5177,0.5171,0.5169,0.5165,0.5174,0.5174,0.5174,0,0.5132,0.5135,0.5137,0.5142,0.5144,0.5145,0.5148,0.515,0.5154,0.5156,0.5159,0.5162,0.5164,0.5167,0.5169,0.517,0.5171,0.5173,0.5173,0.5173,0.5176,0.5171,0.5164,0.5163,0.5173,0.5173,0.5173,0,0.5126,0.5131,0.5132,0.5134,0.5141,0.5141,0.5144,0.5148,0.515,0.5152,0.5154,0.5157,0.5158,0.516,0.5165,0.5166,0.5166,0.5169,0.5167,0.5167,0.5167,0.5167,0.516,0.5168,0.5168,0.5168,0.5168,0,0.5122,0.5123,0.513,0.5131,0.5131,0.5137,0.5137,0.514,0.5144,0.5145,0.515,0.5151,0.5157,0.5158,0.5162,0.5162,0.5163,0.5165,0.5166,0.5164,0.5164,0.5165,0.5165,0.5168,0.5168,0.5168,0.5168,0,0.5115,0.512,0.5122,0.5128,0.5129,0.5129,0.5134,0.5135,0.5138,0.514,0.5141,0.5146,0.5148,0.5153,0.5156,0.5158,0.5158,0.516,0.5157,0.5157,0.5155,0.5155,0.5148,0.5147,0.5156,0.5156,0.5156,0,0.5112,0.5113,0.5119,0.512,0.5122,0.5124,0.5126,0.5131,0.5133,0.5137,0.5137,0.514,0.5142,0.5145,0.5149,0.5152,0.5153,0.5151,0.5154,0.5152,0.5153,0.5153,0.5152,0.515,0.515,0.515,0.515,0,0.5106,0.5109,0.5111,0.5114,0.5116,0.5119,0.5122,0.5122,0.5128,0.513,0.5132,0.5134,0.5137,0.5139,0.5142,0.5145,0.5148,0.5149,0.5148,0.5147,0.5145,0.5145,0.5155,0.5149,0.5149,0.5149,0.5149,0.5149,0.5101,0.5102,0.5106,0.5108,0.5111,0.5114,0.5115,0.5118,0.512,0.5123,0.5126,0.5128,0.5131,0.5136,0.5138,0.5139,0.5141,0.5141,0.514,0.514,0.5139,0.5145,0.514,0.514,0.514,0.514,0.514,0,0.5095,0.5098,0.51,0.5104,0.5106,0.5109,0.5112,0.5113,0.5115,0.5118,0.512,0.5122,0.5125,0.5129,0.5131,0.5131,0.5133,0.5132,0.5132,0.5132,0.5138,0.5138,0.513,0.513,0.513,0.513,0.513,0.513,0.5092,0.5094,0.5096,0.5098,0.5101,0.5103,0.5105,0.5107,0.5109,0.5112,0.5113,0.5116,0.5119,0.5122,0.5124,0.5125,0.5126,0.5124,0.5125,0.5131,0.5132,0.5132,0.5132,0.5124,0.5124,0.5119,0.5119,0.5119]},{"header":{"parameterUnit":"m.s-1","parameterCategory":1,"la1":30.2991,"la2":30.254,"lo1":-89.0895,"lo2":-89.0444,"dy":0.0017,"dx":0.0017,"nx":28,"ny":28,"refTime":"2024-08-25T09:00:00:Z","depth":0,"parameterNumber":3,"parameterNumberName":"V-component_of_WINDS"},"data":[0,0,0,0,0,0,0,0,0,0,0,0,0,0,0,0,0,0,0,0,0,0,0,0,0,0,0,0,0,0,0,0,0,0,0,0,0,0,0,0,0,0,0,0,0,0,0,0,0,0,0,0,0,0,0,0,0,0,1.2889,1.2888,0,1.2841,1.284,1.2839,1.2811,1.2811,1.281,1.281,1.2758,1.2756,1.2755,0,0,0,0,0,0,0,0,0,0,0,0,0,1.2952,1.2951,1.2889,1.2888,1.2888,1.2841,1.284,1.2839,1.2811,1.281,1.281,1.281,1.2758,1.2757,1.2755,0,0,0,0,0,0,0,0,0,0,0,0,0,1.2917,1.2951,1.2889,1.2868,1.2865,1.2841,1.284,1.2839,1.2811,1.281,1.281,1.281,1.2759,1.2757,1.2755,1.2747,0,0,1.2749,1.2748,0,0,0,0,0,0,0,0,1.2919,1.2914,1.2871,1.2869,1.2866,1.2832,1.2843,1.2808,1.2811,1.2831,1.281,1.281,1.2782,1.2778,1.2769,1.2744,1.2742,1.2749,1.2747,1.2747,1.2746,0,0,0,0,0,0,0,1.2921,1.2916,1.287,1.2871,1.2868,1.2859,1.2854,1.2836,1.2808,1.283,1.2827,1.2822,1.2781,1.2771,1.2768,1.2741,1.2749,1.2747,1.2746,1.2745,1.2705,1.2705,0,0,0,0,0,0,1.2927,1.2918,1.2871,1.2868,1.2893,1.2858,1.2853,1.2843,1.2808,1.2803,1.2822,1.2821,1.2775,1.277,1.2766,1.2753,1.2747,1.2745,1.2744,1.2705,1.2705,1.2705,0,0,0,0,0,0,1.2929,1.2924,1.2873,1.2893,1.2886,1.2858,1.2847,1.2842,1.2833,1.2803,1.2798,1.2818,1.2774,1.2769,1.2751,1.2751,1.2744,1.2742,1.2705,1.2705,1.2705,1.2728,0,0,0,0,0,0,1.2931,1.2924,1.2922,1.2893,1.2885,1.2861,1.2847,1.2841,1.283,1.2828,1.2798,1.2793,1.2774,1.2755,1.275,1.2748,1.2741,1.2704,1.2705,1.2705,1.2727,1.2729,1.2731,0,0,0,0,0,1.2933,1.293,1.2922,1.2916,1.2881,1.2861,1.2856,1.2835,1.283,1.2827,1.2807,1.2794,1.2752,1.2753,1.2747,1.2745,1.2704,1.2705,1.2705,1.2727,1.2729,1.2731,0,0,0,0,0,0,1.2959,1.2926,1.2916,1.2904,1.2885,1.2856,1.2851,1.2839,1.282,1.2819,1.2793,1.2787,1.2772,1.2757,1.2758,1.2735,1.2726,1.2726,1.2745,1.2747,1.2749,1.2752,1.2739,0,0,0,0,0,1.2963,1.295,1.2922,1.2913,1.2905,1.288,1.287,1.2856,1.2835,1.2827,1.2806,1.2786,1.2768,1.2757,1.2739,1.2725,1.2717,1.2721,1.2722,1.2724,1.2723,1.2714,1.2715,1.2705,1.2705,1.2705,0,0,1.2971,1.2952,1.2945,1.2918,1.2902,1.2888,1.2873,1.2859,1.2848,1.2824,1.2807,1.2791,1.2766,1.275,1.2742,1.2737,1.2724,1.2724,1.2726,1.2724,1.2714,1.2715,1.2716,1.2706,1.2706,1.2706,0,0,1.298,1.2964,1.2955,1.2939,1.2916,1.2899,1.2897,1.2869,1.2858,1.284,1.2821,1.2807,1.2777,1.276,1.2747,1.2748,1.2734,1.2743,1.2752,1.2743,1.2743,1.2744,1.2743,1.2743,1.2742,1.2743,1.2743,0,1.2993,1.2972,1.2952,1.2939,1.2927,1.2905,1.2895,1.288,1.2851,1.2843,1.2838,1.2799,1.2781,1.2761,1.2761,1.2752,1.2747,1.2746,1.2745,1.2745,1.2745,1.2744,1.2744,1.2744,1.2744,1.2743,1.2743,0,1.2989,1.2975,1.297,1.2944,1.2931,1.292,1.2896,1.2885,1.2872,1.2855,1.2837,1.2814,1.2791,1.2785,1.2771,1.2762,1.276,1.275,1.2741,1.2748,1.2746,1.2746,1.2745,1.2745,1.2745,1.2744,0,0,1.3012,1.2974,1.2973,1.296,1.2932,1.292,1.2907,1.2885,1.2876,1.2856,1.2844,1.2819,1.281,1.2795,1.2779,1.2772,1.2773,1.2763,1.2762,1.2765,1.2759,1.2766,1.2766,1.2763,1.2763,1.2763,1.2761,0,1.3016,1.2993,1.2973,1.2956,1.2942,1.2921,1.2909,1.289,1.2874,1.2858,1.284,1.2822,1.2812,1.2803,1.2795,1.2774,1.2771,1.2774,1.275,1.2749,1.2757,1.2766,1.2773,1.2773,1.2761,1.2761,1.276,0,1.3017,1.2999,1.2981,1.2954,1.2947,1.2937,1.2915,1.2901,1.2878,1.2866,1.285,1.2834,1.2817,1.281,1.2787,1.2789,1.2778,1.2766,1.2766,1.2762,1.2755,1.2762,1.2772,1.2772,1.276,1.276,1.276,0,1.3035,1.3006,1.2992,1.2981,1.2949,1.2942,1.2928,1.2905,1.2893,1.2873,1.2864,1.2843,1.2831,1.2813,1.2791,1.2788,1.2769,1.276,1.2758,1.2758,1.2754,1.2755,1.2762,1.2748,1.2748,1.2748,1.2748,0,1.3041,1.303,1.2999,1.299,1.2977,1.2954,1.2942,1.2926,1.2905,1.2892,1.2872,1.2859,1.283,1.2814,1.2796,1.2778,1.2773,1.2762,1.2758,1.2764,1.2765,1.2756,1.2755,1.2748,1.2748,1.2748,1.2748,0,1.3058,1.3037,1.302,1.299,1.2983,1.2975,1.2949,1.2938,1.2921,1.2904,1.2899,1.2871,1.285,1.2826,1.2798,1.2785,1.2769,1.2762,1.2777,1.2774,1.2773,1.2773,1.2774,1.2773,1.2761,1.2761,1.2761,0,1.3063,1.3055,1.3025,1.3015,1.3002,1.2986,1.2973,1.2949,1.2937,1.291,1.2902,1.288,1.2862,1.2829,1.2806,1.2783,1.2776,1.2777,1.2772,1.2778,1.2775,1.2775,1.2774,1.2779,1.2779,1.2779,1.278,0,1.3074,1.3063,1.3047,1.3026,1.3012,1.2994,1.2976,1.2968,1.2941,1.2928,1.2907,1.2892,1.2863,1.2841,1.2816,1.28,1.2784,1.2782,1.278,1.2786,1.2794,1.2789,1.2781,1.2781,1.2781,1.2781,1.2781,1.2781,1.3084,1.3076,1.3053,1.3035,1.3018,1.3001,1.299,1.2971,1.2954,1.2929,1.2916,1.2895,1.2871,1.2835,1.282,1.2802,1.2797,1.2795,1.2794,1.2793,1.2795,1.2798,1.2797,1.2797,1.2797,1.2797,1.2797,0,1.3093,1.3078,1.3061,1.3036,1.3021,1.301,1.2988,1.2976,1.2959,1.2938,1.292,1.2895,1.2874,1.2848,1.2825,1.2815,1.2808,1.281,1.281,1.2806,1.2801,1.2805,1.2816,1.2816,1.2816,1.2816,1.2816,1.2816,1.3096,1.308,1.3067,1.3043,1.3027,1.3007,1.2996,1.2979,1.2963,1.2937,1.2919,1.2903,1.288,1.2854,1.2833,1.2826,1.2818,1.2822,1.2813,1.2808,1.2807,1.2805,1.2809,1.2821,1.2821,1.2819,1.2819,1.2819]}]]